san ya , China , Asia

  • Sunday
    April 11

    Cloudy  Cloudy

    86 °F  72 °F

    East  No wind

    3~4L    

  • Monday
    April 12

    Cloudy  Cloudy

    88 °F  75 °F

    Southeast  No wind

    3~4L    

  • Tuesday
    April 13

    Cloudy  Cloudy

    88 °F  75 °F

    Southeast  East

    3~4L   3~4L 

  • Wednesday
    April 14

    Cloudy  Cloudy

    86 °F  77 °F

    No wind  No wind

        

  • Thursday
    April 15

    Cloudy  Cloudy

    88 °F  79 °F

    No wind  No wind

        

  • Friday
    April 16

    Sunny  Cloudy

    88 °F  79 °F

    No wind  No wind

        

  • Saturday
    April 17

    Cloudy  Cloudy

    88 °F  77 °F

    No wind  No wind

        

Date   Weather Temperature Humidity Total_rain Visibility Wind
17:00 Sunny 80°F 88.5% 0mm - Northeast  7.4m/s
20:00 Sunny 75°F 95.8% 0mm - Northeast  5.8m/s
23:00 Sunny 75°F 98% 0mm - Northeast  4.9m/s
02:00 Cloudy 74°F 97.7% 0mm - Northeast  4.7m/s
05:00 Cloudy 73°F 97% 0mm - Northeast  4.4m/s
08:00 Cloudy 75°F 96.3% 0mm - Northeast  4.9m/s
11:00 Sunny 87°F 79.6% 0mm - Northeast  4.6m/s
14:00 Sunny 88°F 78.6% 0mm - Southeast  3.7m/s
08:00 Cloudy 75°F 96.3% 0mm - Northeast  4.9m/s
11:00 Sunny 87°F 79.6% 0mm - Northeast  4.6m/s
14:00 Sunny 88°F 78.6% 0mm - Southeast  3.7m/s
17:00 Sunny 83°F 81.8% 0mm - Southeast  4.8m/s
20:00 Sunny 78°F 93.1% 0mm - Southeast  4.7m/s
23:00 Sunny 78°F 96.6% 0mm - Southeast  3.8m/s
02:00 Sunny 78°F 96.6% 0mm - Southeast  3.2m/s
05:00 Sunny 77°F 96.6% 0mm - Southeast  3.0m/s
08:00 Sunny 80°F 96.6% 0mm - Southeast  3.3m/s
11:00 Sunny 87°F 86.3% 0mm - Southeast  3.4m/s
14:00 Cloudy 88°F 86.8% 0mm - Southeast  3.9m/s
17:00 Sunny 86°F 87.4% 0mm - Southeast  4.2m/s
20:00 Sunny 79°F 92.3% 0mm - Southeast  4.0m/s
23:00 Sunny 78°F 97.1% 0mm - Southeast  3.0m/s
02:00 Sunny 77°F 97.4% 0mm - Southeast  2.4m/s
05:00 Sunny 77°F 97.3% 0mm - Southeast  2.1m/s
08:00 Sunny 79°F 82.2% 0mm - Northeast  2.5m/s
11:00 Sunny 83°F 82.5% 0mm - Southeast  3.1m/s
14:00 Sunny 87°F 82.7% 0mm - Southeast  4.1m/s
17:00 Sunny 83°F 88.5% 0mm - Southeast  4.7m/s
20:00 Sunny 81°F 95% 0mm - Southeast  4.1m/s
23:00 Cloudy 79°F 95.5% 0mm - Southeast  3.0m/s
02:00 Cloudy 79°F 95.5% 0mm - Southeast  3.2m/s
05:00 Cloudy 78°F 95.5% 0mm - Southeast  3.1m/s
08:00 Cloudy 80°F 95.5% 0mm - Southeast  3.3m/s
11:00 Cloudy 82°F 85.4% 0mm - Southeast  3.7m/s
14:00 Sunny 88°F 86.1% 0mm - Southeast  4.9m/s
17:00 Sunny 86°F 89.4% 0mm - Southeast  5.2m/s
20:00 Sunny 83°F 95.8% 0mm - Southeast  4.4m/s
23:00 Cloudy 82°F 96.6% 0mm - Southeast  3.2m/s
02:00 Sunny 81°F 98% 0mm - Northeast  3.5m/s
05:00 Cloudy 80°F 93.8% 0mm - Southeast  3.8m/s
08:00 Cloudy 83°F 80.9% 0mm - Northeast  4.6m/s
11:00 Sunny 86°F 81% 0mm - Southeast  4.8m/s
14:00 Sunny 88°F 86.4% 0mm - Southeast  5.8m/s
17:00 Sunny 84°F 92.3% 0mm - Southeast  3.6m/s
20:00 Sunny 80°F 93.1% 0mm - Northeast  5.0m/s
23:00 Cloudy 81°F 96.5% 0mm - Southeast  5.1m/s
02:00 Cloudy 82°F 98.3% 0mm - Northeast  4.2m/s
05:00 Cloudy 83°F 96% 0mm - Southeast  4.3m/s
08:00 Cloudy 83°F 94.7% 0mm - Northeast  5.8m/s
11:00 Cloudy 85°F 75.9% 0mm - Southeast  4.1m/s
14:00 Cloudy 89°F 82.7% 0mm - Southeast  6.1m/s
17:00 Cloudy 79°F 89.8% 0mm - Southeast  3.8m/s
20:00 Cloudy 79°F 91.2% 0mm - Northeast  5.4m/s
23:00 Cloudy 79°F 96.7% 0mm - Southeast  4.7m/s
02:00 Cloudy 78°F 95.2% 0mm - Northeast  4.4m/s
05:00 Cloudy 78°F 94.3% 0mm - Southeast  4.2m/s